Find Starlink 34057

NORAD ID: 63814 Int'l Des: 2025-092 Owner: SPXS Country: US Constellation: starlink operational
LEOCIRCULAR

現在のビュー

3D地球を読み込み中...

About Starlink 34057

Starlink 34057 (NORAD 63814) is a starlink constellation satellite (v2 mini) launched May 4, 2025 by SPXS of US. It operates in LEO, CIRCULAR orbit with a mass of 575.00 kg.

次回通過

Passes for default location (London). Set your location on the main map for personalized predictions.

高度履歴

Loading altitude history...

軌道要素

1 63814U 25092L 26235.59269635 .00008837 00000-0 33021-3 0 9991
2 63814 43.0036 309.6727 0001490 272.5080 87.5601 15.27586470 74140
Epoch: Aug 23, 2026 • Age: 19 hours

現在のステータス

高度 484.4 km
遠地点 / 近地点 N/A
速度 7.63 km/s
衛星直下点 31.26°N, 126.19°W
打ち上げ日 May 4, 2025
運用期間 1.3 years
タイプ internet

技術仕様

分類 Payload
質量 575.00 kg
乾燥質量 530.00 kg
総質量 575.00 kg
長さ 0.30 m
直径 4.10 m
スパン 29.00 m
形状 Box + pan
製造者 SPXS
バスタイプ Starlink V2MO
フェーズステータス In Orbit
所有者/国 SPXS/US

Most Searched